Regional Weather Roundup
Issued by NWS Grand Forks, ND

Home | Current Version | Previous Version | Text Only | Print | Product List | Glossary Off
Versions: 1 2 3 4 5 6 7 8 9 10 11 12 13 14 15 16 17 18 19 20 21 22 23 24 25 26 27 28 29 30 31 32 33 34 35 36 37 38 39 40 41 42 43 44 45 46 47 48 49 50

000
ASUS43 KFGF 300410
RWRFGF
PRAIRIE TO PINES  WEATHER ROUNDUP
NATIONAL WEATHER SERVICE EASTERN NORTH DAKOTA/GRAND FORKS ND
1100 PM CDT MON AUG 29 2016

 **SATELLITE DATA USED TO AUGMENT SKY COVER AT AUTOMATED STATIONS**
 *****  WEATHER ACROSS EASTERN NORTH DAKOTA  *****

CITY           SKY/WX    TMP DP  RH WIND       PRES   REMARKS
GRAND FORKS    CLEAR     58  52  80 NW7       30.18S
GRAND FRKS AFB CLEAR     59  51  75 N7        30.20R
GRAND FRKS NWS   N/A     59 N/A N/A NW2         N/A
DEVILS LAKE    CLEAR     58  51  78 CALM      30.25R
FARGO          CLEAR     61  54  77 N8        30.19R
WAHPETON ARPT  PTCLDY    64  59  82 NW3       30.19R
$$

 ***** WEATHER ACROSS CENTRAL AND WESTERN NORTH DAKOTA  *****

CITY           SKY/WX    TMP DP  RH WIND       PRES   REMARKS
BISMARCK       CLEAR     59  49  69 NE6       30.25R
MINOT          CLEAR     62  47  57 S3        30.24R
JAMESTOWN      PTCLDY    57  54  89 CALM      30.23R
MINOT AFB      CLEAR     53  44  72 S5        30.23S
GARRISON         N/A     60  47  61 NE3       30.25S
WILLISTON      CLEAR     68  41  37 SE6       30.22S
DICKINSON      CLEAR     59  45  59 E8        30.25S
HETTINGER      CLEAR     65  50  58 E10       30.28R
$$

 *****  OTHER AIRPORT OBSERVATIONS IN OUR AREA  *****

CITY           SKY/WX    TMP DP  RH WIND       PRES   REMARKS
WALHALLA       NOT AVBL
GRAFTON AIRPOR FAIR      61  54  77 W6        30.21S
VALLEY CITY AR FAIR      59  54  82 N5        30.24S
CANDO          NOT AVBL
CAVALIER APRT  FAIR      54  50  87 W5        30.20S
GWINNER        FAIR      63  57  82 N8        30.21F
SHEYENNE NWR     N/A     64  55  72 N3        29.95S
ROLLA          FAIR      50  48  93 W6        30.25S
 ***** THE ABOVE OBSERVATIONS ARE NON NWS ARE NOT QUALITY
       CONTROLLED AND MAY MIS-REPORT RAIN FOR SNOW...
$$

  *****  WEATHER ACROSS NORTHERN MINNESOTA  *****

CITY           SKY/WX    TMP DP  RH WIND       PRES   REMARKS
FLAG ISLAND    CLEAR     63  54  72 NW6       30.15S
WARROAD        CLEAR     57  54  88 CALM      30.18S
ROSEAU         CLEAR     57  52  82 CALM      30.18S
HALLOCK        CLEAR     55  52  88 CALM      30.19R
THF RVR FALLS  CLEAR     58  53  84 N5        30.20R
BAUDETTE       CLEAR     57  54  89 NW8       30.16R
WASKISH        CLEAR     63  57  82 NW6       30.18R
CROOKSTON      CLEAR     59  54  82 CALM      30.20R
$$
  *****  WEATHER ACROSS CENTRAL AND WEST MINNESOTA  *****

CITY           SKY/WX    TMP DP  RH WIND       PRES   REMARKS
FOSSTON        CLEAR     55  54  94 CALM      30.21R
BEMIDJI        CLEAR     62  57  84 W5        30.19R
PARK RAPIDS    CLEAR     64  61  90 N6        30.19R
ELBOW LAKE     FAIR      67  65  94 N6        30.18S
WADENA         CLEAR     63  61  94 N3        30.18R
DETROIT LAKES  CLEAR     64  61  88 N5        30.20S
MOORHEAD       CLEAR     63  55  77 N6        30.20R
FERGUS FALLS   CLEAR     66  66 100 CALM      30.19S
MORRIS MN      CLOUDY    72  70  94 N8        30.15R
STAPLES        CLOUDY    64  64 100 NW3       30.17F
$$
  *****  WEATHER ELSEWHERE ACROSS MINNESOTA  *****

CITY           SKY/WX    TMP DP  RH WIND       PRES   REMARKS
DULUTH         CLOUDY    67  65  93 W13       30.13F
INTRNTL FALLS  CLEAR     58  57  97 NW3       30.14R
ELY            FOG       64  64 100 CALM      30.15R VSB 1/2
CLOQUET        CLOUDY    64  63  94 SW6       30.14F
WHEATON        CLOUDY    70  64  83 N5        30.19R
BRAINERD       CLOUDY    72  67  84 N7        30.16S
HIBBING        CLEAR     64  64 100 W3        30.15S
ALEXANDRIA     CLOUDY    71  67  87 N10       30.18F
SAINT CLOUD    TSTM      67  67 100 VRB3      30.19R VSB 3/4
MINNEAPOLIS    CLOUDY    77  65  66 NE15G22   30.15R
$$

  *****  WEATHER ACROSS SOUTH DAKOTA  *****

CITY           SKY/WX    TMP DP  RH WIND       PRES   REMARKS
SIOUX FALLS    CLOUDY    72  68  87 CALM      30.19F
BROOKINGS      PTCLDY    73  69  87 S7        30.18R
WATERTOWN      PTCLDY    69  64  84 NW5       30.20R
HURON          PTCLDY    75  68  78 SE5       30.17R
SISSETON         N/A     67  64  90 N10       30.17S
ABERDEEN       PTCLDY    67  61  81 NE3       30.20S
MITCHELL       PTCLDY    73  68  84 S9        30.17R
PIERRE         PTCLDY    74  65  73 NE16G25   30.16R
MOBRIDGE       CLOUDY    68  54  60 NE12      30.20S
RAPID CITY     CLOUDY    69  61  75 NE9       30.26R
$$

  *****  SOME WEATHER IN NEARBY STATES *****

CITY           SKY/WX    TMP DP  RH WIND       PRES   REMARKS
GLASGOW MT     CLEAR     69  44  40 E10       30.14S
GREAT FALLS MT CLOUDY    71  41  33 E12       30.08F
CHEYENNE WY    CLOUDY    61  45  55 W3        30.39S
SCOTTSBLUFF NE CLEAR     65  60  84 E5        30.27R
OMAHA NE       LGT RAIN  71  68  90 S5        30.21S
DES MOINES IA  CLOUDY    73  71  93 W5        30.19R
DAVENPORT IA   PTCLDY    71  69  93 E5        30.17S FOG
CHICAGO IL     CLOUDY    74  72  93 CALM      30.18R FOG
EAU CLAIRE WI  PTCLDY    72  71  97 SW5       30.16R
LA CROSSE WI   CLOUDY    73  72  96 SE3       30.17R
$$

  *****  SOME NATIONAL WEATHER *****

CITY           SKY/WX    TMP DP  RH WIND       PRES   REMARKS
LA GUARDIA NY  PTCLDY    79  57  46 NE8       30.12S
RALEIGH NC     PTCLDY    72  64  76 CALM      30.10S
ATLANTA GA     PTCLDY    80  66  62 E12       30.10R
NEW ORLEANS LA PTCLDY    84  75  74 CALM      29.97R HX  92
OKLAHOMA CITY  PTCLDY    77  70  79 NE8       30.13R
ALBUQUERQUE NM PTCLDY    66  49  54 E22G31    30.29R
SALT LAKE CITY PTCLDY    80  39  23 SE5       30.13R
LOS ANGELES CA CLEAR     70  63  78 S3        29.86R
BOISE ID       MOCLDY    80  42  25 CALM      30.01R SMOKE
SEATTLE WA     PTCLDY    69  54  58 W3        29.99R
$$

*** WEATHER ACROSS MANITOBA...SASKATCHEWAN AND ONTARIO ***
                ***ONTARIO***

CITY           SKY/WX    TMP DP  RH WIND       PRES   REMARKS
GERALDTON      CLOUDY    63  63 100 SW3       30.03S FOG
THUNDER BAY    CLEAR     63  63 100 W5        30.05S
SIOUX LOOKOUT  CLEAR     59  55  88 NW6       30.10R
TORONTO        PTCLDY    68  55  64 N6        30.19F
BIG TROUT LK   CLOUDY    59  52  77 NW14G24   29.97S
PICKLE LAKE    NOT AVBL
DRYDEN         CLEAR     59  54  82 W7        30.12R
KENORA         CLEAR     59  54  82 NW8       30.15S
$$
                *** MANITOBA***

CITY           SKY/WX    TMP DP  RH WIND       PRES   REMARKS
BRANDON        CLEAR     50  45  81 NW7       30.22S
DAUPHIN        CLEAR     52  46  82 W8        30.20R
ISLAND LAKE    CLOUDY    59  52  77 NW13G20   30.02S
PILOT MOUND      N/A     52  46  82 NW3         N/A
THE PAS        PTCLDY    57  46  67 NW13      30.15R
THOMPSON       LGT RAIN  55  52  88 W13G18    30.00R
WINNIPEG       CLEAR     57  48  72 W6        30.18S
LYNN LAKE      CLOUDY    54  50  87 MISG      30.06R
CHURCHILL      LGT RAIN  48  46  93 N18       29.90R VSB 1
GILLAM         DRIZZLE   55  54  94 W6        29.89S
$$
                ***SASKATCHEWAN***

CITY           SKY/WX    TMP DP  RH WIND       PRES   REMARKS
ESTEVAN        CLEAR     57  46  67 E5        30.24S
KINDERSLEY     MOCLDY    57  48  72 E12G17    30.18S
LLOYDMINSTER   PTCLDY    50  45  81 E5        30.23R
PRINCE ALBERT  PTCLDY    48  43  81 CALM      30.23S
REGINA         MOCLDY    59  45  58 NE6       30.23F
YORKTON        CLEAR     57  45  62 W6        30.23S
N. BATTLEFORD  CLEAR     54  43  66 NE8       30.24S
LA RONGE       PTCLDY    46  41  81 W3        30.22R
SASKATOON      CLEAR     54  43  66 NE7       30.23F
SWIFT CURRENT  CLEAR     57  46  67 SE12      30.18S
$$
NOTE: THESE ARE AUTOMATED STATIONS WITH LIMITED QUALITY CONTROL
      "FAIR" INDICATES FEW OR NO CLOUDS BELOW 12,000 FEET WITH NO
      SIGNIFICANT WEATHER AND/OR OBSTRUCTIONS TO VISIBILITY.
      SKY/WX - SKY CONDITION AND SIGNIFICANT WEATHER.
      TMP - AIR TEMPERATURE.    DP   - DEWPOINT TEMPERATURE.
      RH  - RELATIVE HUMIDITY.  PRES - PRESSURE.
      HX  - HEAT INDEX.         WCI  - WIND CHILL INDEX.
$



USA.gov is the U.S. government's official web portal to all federal, state and local government web resources and services.